Dewpoint
-5 -5 -8 -9 -11 -13 -19 -22 -25 -26 -25 -28 -30 -30 -32 -32 -33 -33 -34 -34 -34 -34 -34 -34 -34 -34 -31 -15 -22 -34 -32 -28 -19 -14 -3 -7 -7 -5 -4 -5 -5 -3 -5 -6 -5 -6 -6
-3 -7 -11 -12 -11 -17 -17 -20 -23 -24 -27 -29 -30 -30 -31 -32 -32 -33 -33 -33 -33 -33 -32 -31 -31 -30 -19 -17 -28 -31 -32 -30 -25 -20 -8 -4 -8 -8 -7 -6 -6 -7 -6 -5 -5 -6 -6
-6 -8 -6 -7 -10 -14 -17 -20 -20 -25 -28 -29 -28 -30 -30 -31 -31 -32 -32 -32 -32 -32 -31 -28 -25 -22 -13 -12 -25 -24 -18 -10 -6 -6 -9 -11 -5 -5 -5 -5 -7 -7 -5 -6 -6 -6 -6
-5 1 1 -0 -7 -10 -11 -18 -25 -28 -28 -28 -29 -30 -29 -30 -31 -31 -31 -31 -32 -31 -29 -22 -18 -13 -8 -18 -11 -2 -7 -5 -6 -5 -6 -7 -12 -11 -11 -8 -5 -5 -6 -3 -5 -5 -5
-2 -2 -4 -4 -6 -8 -12 -18 -26 -27 -28 -28 -28 -28 -28 -30 -30 -31 -31 -31 -30 -27 -21 -22 -8 -17 -9 -7 -11 -10 -9 -10 -11 -6 -6 -6 -7 -12 -11 -8 -8 -8 -6 -8 -7 -5 -4
-1 -3 -2 -3 -6 -9 -12 -22 -25 -27 -28 -28 -28 -28 -27 -29 -29 -30 -30 -32 -28 -21 -22 -17 -7 -9 -13 -8 -9 -9 -8 -8 -8 -10 -9 -6 -7 -10 -14 -12 -9 -9 -9 -8 -8 -10 -7
-1 -1 -2 0 -3 -9 -15 -23 -25 -27 -27 -27 -27 -27 -28 -28 -28 -27 -30 -29 -12 -9 -23 -8 -7 -5 -7 -6 -7 -7 -8 -8 -9 -8 -11 -11 -9 -14 -18 -16 -15 -12 -11 -11 -12 -11 -5
-1 -0 -0 -1 -7 -11 -17 -23 -26 -26 -25 -24 -26 -26 -26 -27 -27 -26 -27 -14 -10 -11 -4 -7 -5 -4 -5 -7 -10 -9 -12 -10 -9 -9 -14 -14 -10 -15 -19 -19 -16 -11 -11 -11 -13 -14 -8
-0 -1 -1 -2 -5 -10 -19 -24 -25 -24 -21 -23 -25 -25 -26 -29 -26 -25 -16 -14 -10 -5 -5 -11 -8 -5 -9 -13 -15 -10 -13 -11 -9 -9 -10 -11 -16 -17 -15 -11 -12 -12 -11 -12 -11 -12 -12
-2 -2 -1 -1 -3 -10 -18 -23 -23 -20 -18 -20 -22 -26 -27 -29 -23 -22 -9 -15 -12 -6 -11 -15 -12 -9 -13 -13 -14 -9 -12 -7 -8 -9 -10 -10 -15 -16 -16 -9 -11 -10 -14 -11 -10 -9 -8
-1 -1 -1 -2 -6 -11 -18 -21 -20 -17 -18 -19 -22 -25 -26 -26 -23 -9 -17 -17 -13 -2 -22 -17 -14 -13 -12 -11 -10 -9 -9 -7 -6 -7 -9 -8 -11 -12 -12 -14 -12 -10 -13 -10 -8 -7 -7
-1 -1 -2 -5 -8 -13 -16 -16 -16 -14 -17 -20 -21 -23 -25 -22 -19 -18 -17 -17 -8 -11 -17 -17 -15 -11 -10 -10 -9 -9 -12 -7 -6 -5 -8 -8 -10 -11 -11 -13 -15 -11 -8 -8 -9 -8 -5
-2 -2 -3 -3 -6 -8 -11 -13 -15 -15 -18 -19 -21 -22 -20 -17 -10 -16 -15 -8 -13 -20 -18 -14 -10 -9 -8 -10 -9 -11 -7 -3 1 2 -2 -5 -11 -12 -11 -10 -13 -11 -7 -8 -7 -5 -7
-2 -2 -4 -2 -5 -4 -3 -8 -13 -16 -18 -19 -19 -18 -13 -12 -13 -13 -12 -8 -10 -14 -12 -12 -9 -8 -8 -10 -9 -7 -6 -1 -6 -1 1 1 -3 -10 -12 -10 -12 -11 -9 -9 -8 -8 -8
-2 -3 -3 -3 -3 -2 -3 -7 -13 -16 -18 -18 -15 -10 -7 -10 -10 -10 -6 -7 -13 -10 -8 -6 -7 -9 -11 -9 -7 -5 -5 -0 -1 0 2 2 1 -9 -10 -13 -13 -11 -8 -12 -12 -12 -6
-2 -3 -4 -2 -3 -4 -5 -7 -13 -16 -17 -14 -6 -4 -2 -7 -8 -5 -5 -8 -9 -9 -7 -7 -5 -6 -6 -7 -5 -3 -2 -3 -3 -5 -0 2 2 -5 -4 -14 -13 -13 -12 -9 -12 -7 -8
-2 -3 -4 -3 -3 -3 -5 -8 -11 -13 -14 -12 -8 -4 -3 -6 -6 -3 -5 -8 -7 -6 -6 -5 -5 -5 -6 -4 -4 -2 -0 -2 -7 -5 -5 2 4 -1 -5 -11 -13 -9 -5 -9 -12 -9 -9
-2 -3 -4 -4 -3 -4 -4 -6 -9 -9 -12 -9 -8 -3 -3 -6 -5 -5 -6 -5 -5 -6 -5 -5 -4 -4 -3 -3 -2 -4 -0 -4 -7 -6 -2 1 3 3 -0 -0 -3 -12 -7 -7 -6 -7 -8
-3 -2 -4 -6 -6 -6 -4 -5 -8 -8 -10 -8 -5 -5 -4 -3 -3 -6 -5 -5 -5 -6 -7 -4 -4 -4 -3 -3 -2 -6 -6 -8 -7 -5 -1 -1 2 1 -0 1 3 3 -10 -7 -5 -8 -6
-3 -5 -5 -4 -6 -5 -5 -6 -9 -7 -8 -7 -4 -3 -4 -2 -3 -5 -3 -5 -6 -8 -7 -5 -5 -4 -5 -5 -6 -5 -5 -6 -6 -6 -3 -3 4 4 3 5 3 5 5 0 -7 -3 -5
-4 -4 -3 -3 -5 -6 -4 -4 -9 -7 -7 -5 -4 -5 -4 -1 -2 -5 -5 -6 -6 -6 -8 -8 -5 -6 -5 -3 -5 -7 -6 -5 -7 -6 -5 -3 -1 2 1 -0 -4 1 4 4 2 -5 -4
-4 -2 -2 -2 -4 -6 -6 -4 -8 -6 -7 -5 -3 -5 -5 -6 -5 -4 -5 -7 -8 -7 -7 -8 -5 -7 -7 -4 -4 -3 -4 -5 -4 -6 -4 -3 -1 -1 -2 -1 -2 -3 2 1 2 2 -3
-4 -3 -1 -1 -2 -4 -6 -7 -7 -5 -7 -4 -5 -5 -5 -6 -7 -6 -7 -9 -8 -8 -9 -7 -6 -7 -6 -6 -5 -6 -5 -4 -4 -2 -1 -1 -2 -3 -2 -4 -1 1 2 -0 -1 -0 1
-3 -3 -2 -1 -3 -5 -5 -7 -6 -5 -6 -6 -5 -4 -5 -6 -9 -8 -9 -8 -8 -8 -7 -8 -8 -7 -8 -6 -6 -5 -5 -4 -3 -3 -2 -0 -1 -3 -1 -3 3 -2 -1 -2 -1 -1 0
-3 -3 -2 -2 -4 -6 -7 -8 -7 -6 -4 -6 -8 -4 -6 -6 -10 -9 -8 -8 -9 -9 -8 -8 -9 -6 -6 -4 -3 -4 -6 -7 -7 -5 -4 -2 -1 -2 -1 -1 -6 0 -3 0 2 2 2
-3 -2 -2 -2 -4 -7 -7 -7 -5 -7 -4 -5 -5 -6 -5 -6 -9 -9 -9 -9 -8 -9 -8 -8 -7 -6 -3 -4 -2 -2 -3 -4 -5 -5 -4 -3 -1 -0 -3 -2 -1 -1 -5 -5 -1 6 3
-2 -2 -2 -2 -4 -7 -7 -7 -6 -7 -4 -4 -3 -7 -4 -5 -8 -6 -8 -8 -7 -7 -8 -8 -6 -8 -3 -2 -2 -3 -0 -4 -1 -2 -2 -2 -0 0 -2 -3 -6 -3 -2 -2 5 6 4
-2 -2 -2 -3 -3 -5 -7 -8 -8 -7 -4 -4 -3 -8 -4 -5 -7 -6 -6 -8 -8 -9 -7 -7 -7 -3 -5 -2 -3 -4 -3 -5 -1 -3 -0 1 1 0 -1 -0 -1 -3 -2 2 2 2 5
-2 -2 -2 -3 -4 -5 -8 -8 -7 -6 -4 -4 -3 -7 -5 -4 -5 -6 -6 -5 -7 -7 -7 -6 -7 -6 -6 -4 -6 -5 -3 -4 -4 0 0 1 2 3 -1 -2 -3 -1 2 3 3 3 4
Wind_Speed
12 10 10 9 7 6 5 4 5 6 7 8 10 12 14 15 16 18 18 19 20 21 20 21 21 20 17 7 7 11 12 11 9 9 7 11 14 14 16 12 21 20 19 22 20 23 24
13 12 11 9 7 5 4 4 5 6 8 10 12 14 15 16 18 20 21 21 22 22 21 20 20 20 11 8 12 10 13 15 16 14 10 11 14 17 17 16 17 15 16 19 21 22 24
13 12 10 9 8 6 5 4 3 4 7 10 12 13 15 17 18 20 22 23 23 23 22 21 20 16 12 8 10 13 11 11 9 11 15 15 12 12 6 13 17 17 18 19 20 22 20
15 12 10 9 5 6 5 3 3 4 7 10 12 13 16 18 20 22 23 24 24 22 21 19 16 11 4 8 7 10 11 9 9 10 11 14 18 16 17 15 17 13 17 17 13 11 21
15 14 12 10 8 8 4 3 2 4 6 9 11 13 16 20 22 24 24 26 21 18 16 16 10 13 3 7 21 23 22 22 22 11 14 9 9 17 16 15 16 17 19 21 15 10 13
14 13 12 11 10 8 5 3 1 3 6 8 11 14 17 20 22 25 26 24 17 14 16 13 10 9 5 21 24 20 19 16 14 18 14 6 8 11 16 15 20 16 20 18 22 17 17
13 15 15 13 12 7 6 3 1 3 5 7 12 14 16 18 20 25 28 16 9 2 19 5 11 4 9 19 13 15 21 22 12 14 16 15 10 21 21 23 26 22 24 22 18 7 13
17 14 12 15 9 8 6 3 0 3 6 9 12 13 14 17 17 22 21 11 10 6 7 5 5 3 7 14 20 13 23 13 16 14 15 15 24 29 19 21 22 24 26 28 21 17 14
17 16 14 11 10 8 5 2 1 2 4 7 11 11 14 16 11 18 17 14 9 6 3 5 4 4 6 21 20 11 29 21 16 15 11 19 37 12 23 18 21 24 25 20 21 16 17
16 15 14 12 11 8 5 4 2 0 2 6 9 12 14 15 8 12 7 8 6 5 2 7 6 3 13 21 4 16 19 19 16 17 16 17 19 21 24 25 23 23 20 19 18 13 16
16 16 16 15 11 9 7 4 3 2 1 4 8 11 12 11 6 5 6 5 3 2 5 6 4 6 20 17 17 4 21 18 21 22 21 33 23 11 18 34 19 25 17 15 15 15 16
16 16 14 12 11 9 8 6 4 2 1 3 6 9 9 8 6 4 4 2 1 4 0 4 8 16 21 16 13 14 23 19 17 22 25 32 33 25 24 19 24 18 12 11 10 10 14
16 14 11 11 10 9 8 7 6 4 1 2 5 6 7 6 1 3 3 1 4 2 3 5 8 13 18 15 12 16 16 16 11 13 16 26 28 28 27 25 21 25 18 10 10 10 17
17 12 12 12 8 8 8 7 6 4 2 1 3 5 5 6 5 4 3 1 1 2 4 8 9 17 6 12 12 15 15 9 13 16 15 16 21 22 19 28 26 23 25 12 19 13 14
16 13 14 11 11 11 10 6 6 5 3 2 3 5 6 6 6 5 1 1 2 2 2 7 14 8 10 13 11 10 14 4 4 6 7 11 11 22 18 25 25 26 22 28 18 13 8
15 13 15 14 10 10 9 8 7 5 5 5 8 8 5 6 5 4 1 3 1 2 4 3 5 3 14 15 12 15 8 5 10 8 4 5 14 15 8 14 22 24 23 21 14 19 20
16 11 13 15 13 11 8 9 7 7 6 7 10 5 6 6 4 2 1 3 2 1 2 2 5 9 12 12 13 17 6 15 8 24 20 10 7 8 7 10 19 17 16 19 20 16 15
17 15 11 17 14 12 9 10 8 8 7 7 5 3 7 5 2 2 3 2 3 2 1 4 6 9 11 13 16 14 8 14 21 23 25 3 6 8 14 4 5 22 21 24 14 23 16
20 19 12 12 10 13 11 12 10 9 9 8 5 5 5 1 3 4 3 3 4 3 1 2 4 3 10 14 9 8 15 22 18 24 11 11 6 12 6 6 7 4 18 19 21 15 19
20 17 16 14 10 15 12 13 12 10 10 9 4 3 4 3 3 2 2 4 2 3 6 5 8 8 12 13 10 13 20 12 23 24 16 14 6 6 8 16 2 6 2 9 19 15 16
23 23 21 17 13 15 15 12 14 12 12 8 3 3 4 5 6 6 4 3 4 2 2 6 5 5 11 7 19 10 20 24 18 11 11 14 9 12 15 19 11 2 12 10 10 20 17
26 23 23 24 17 13 16 15 15 15 14 8 5 4 4 6 7 10 5 4 5 3 3 5 9 9 14 15 15 20 23 21 13 13 16 13 8 16 18 9 12 3 4 3 12 14 16
26 26 25 28 22 15 15 17 18 18 18 6 7 7 4 7 7 6 6 6 3 2 5 10 8 14 15 16 21 32 33 34 24 21 18 9 7 11 7 14 5 4 9 2 3 3 4
29 27 26 32 20 17 17 19 22 21 19 12 9 8 5 4 6 7 4 6 7 8 11 14 15 14 12 24 34 28 23 21 16 12 12 8 10 5 10 11 3 4 10 3 5 4 5
27 26 25 25 21 17 16 19 23 22 20 16 13 9 6 4 7 8 9 10 11 12 13 15 15 9 17 18 11 10 6 4 2 1 3 9 7 5 5 8 2 5 9 9 8 6 11
28 27 27 27 22 17 19 21 21 22 21 18 13 13 6 3 6 10 8 10 9 8 7 7 8 10 6 4 4 6 4 6 3 6 3 2 6 5 6 5 3 5 15 19 4 3 6
33 29 29 28 24 20 19 20 22 23 22 20 11 16 10 7 9 6 6 4 4 4 5 8 6 5 3 3 5 4 3 7 4 7 8 7 3 4 5 3 6 14 20 18 4 8 14
26 31 32 30 28 22 18 18 25 25 24 22 13 16 14 8 11 8 10 13 12 10 7 2 6 1 3 3 3 3 3 4 5 8 8 5 5 2 4 3 4 23 11 10 13 20 10
27 31 39 28 27 23 20 19 23 24 24 21 11 16 16 12 7 9 11 18 20 15 12 5 6 5 4 4 2 3 6 4 7 4 1 3 6 6 5 6 14 17 14 17 17 6 9
Wind_Direction
235 243 254 262 260 262 272 287 297 310 337 346 350 1 358 356 359 359 359 352 344 342 338 331 330 332 340 317 283 301 296 296 316 324 253 245 241 237 240 241 245 239 254 255 257 258 261
234 243 247 240 229 239 253 276 303 329 348 351 359 5 359 360 359 358 357 352 345 343 339 335 331 333 341 297 289 283 282 285 291 285 277 245 242 253 272 256 245 266 258 258 254 259 260
232 227 225 218 207 218 231 249 278 346 352 353 6 3 359 0 354 356 353 349 344 342 338 334 331 332 311 289 314 322 331 320 326 299 266 249 239 242 283 255 254 265 264 260 249 251 252
211 185 189 201 189 218 224 252 321 351 358 360 5 4 360 358 351 353 352 346 340 340 336 339 344 345 281 343 41 19 353 331 333 334 306 263 239 255 257 262 269 255 257 261 247 245 242
196 208 212 214 224 220 230 259 314 352 2 0 3 6 1 357 349 349 351 346 343 341 351 356 360 356 30 31 343 319 314 295 290 290 315 279 226 234 242 240 254 241 256 258 250 229 245
201 206 197 200 211 211 221 246 323 350 0 360 4 10 1 355 348 349 352 351 345 344 7 355 15 311 48 339 342 354 342 315 288 273 279 224 227 233 226 231 240 240 246 247 256 260 228
208 198 185 195 215 202 218 232 326 355 351 2 11 9 360 354 352 352 356 4 357 327 357 357 317 302 329 340 356 348 354 342 311 260 257 229 241 236 232 229 250 256 264 259 261 279 264
199 196 190 206 214 215 210 207 357 345 0 6 8 7 358 354 358 359 5 54 49 338 329 8 345 261 332 347 330 343 351 348 329 309 306 248 242 247 259 253 241 244 253 256 265 262 261
196 202 195 201 212 210 203 205 269 350 3 357 2 1 356 357 2 7 26 46 25 360 313 330 2 17 336 341 323 281 344 325 305 300 280 257 252 286 246 242 240 238 243 253 260 273 253
203 199 196 195 198 206 207 209 218 8 4 353 356 355 0 2 15 5 22 20 2 358 282 32 9 34 340 332 339 310 323 318 287 285 294 276 284 260 255 237 234 246 241 249 253 244 255
193 198 202 209 219 214 205 203 194 179 335 342 349 352 8 13 10 26 353 357 356 13 297 19 359 320 338 340 313 343 332 322 295 286 271 257 273 275 255 243 230 250 247 230 230 237 255
203 212 214 211 211 195 189 192 189 189 265 353 348 360 10 20 26 16 7 25 77 236 314 7 333 337 337 340 323 318 320 324 286 273 264 267 266 261 253 278 242 236 215 218 220 226 236
209 213 201 192 195 187 188 198 199 201 253 359 352 13 23 37 359 47 55 52 236 303 3 354 339 330 323 327 319 330 337 358 20 335 321 298 256 243 240 244 247 217 215 212 209 206 236
209 201 182 197 186 178 204 211 205 203 196 22 13 42 66 73 90 85 53 248 161 57 322 340 329 313 307 341 332 331 335 351 341 341 305 327 260 247 235 222 225 216 215 216 214 214 228
212 219 197 203 186 188 210 208 198 190 167 135 93 109 81 97 109 85 350 87 78 353 13 318 318 314 326 341 328 323 328 280 320 353 297 311 291 261 247 214 213 210 216 222 242 260 248
215 220 199 205 210 206 217 209 192 176 163 137 141 111 74 113 115 60 230 76 138 236 309 325 315 334 321 332 326 341 319 293 315 319 272 287 296 269 284 211 219 225 208 218 226 229 226
214 212 208 203 207 209 215 192 182 173 163 145 153 121 123 110 99 69 143 98 276 275 268 266 295 295 307 321 315 321 278 298 312 324 325 299 267 283 186 202 196 202 220 213 222 223 233
217 215 208 208 208 205 209 188 193 177 164 155 150 128 170 87 184 147 157 151 277 263 156 269 275 273 279 309 303 304 275 300 314 332 323 334 293 288 264 350 346 224 211 202 209 217 236
220 202 225 204 206 198 198 196 198 180 171 159 129 114 178 163 196 176 146 225 243 253 341 287 278 279 296 305 309 299 297 312 322 332 327 335 314 339 304 181 46 319 232 216 222 235 216
214 212 198 197 193 195 202 202 196 181 174 165 139 136 146 188 185 168 183 215 223 242 279 249 278 281 320 306 290 296 299 313 320 320 329 339 293 309 319 313 88 161 237 284 242 228 229
209 208 207 206 193 189 202 199 194 185 182 167 132 157 164 169 182 198 216 199 240 276 231 271 244 270 334 302 314 301 315 314 323 321 321 335 290 315 321 318 335 213 166 202 254 240 236
214 213 215 211 197 187 202 208 200 193 185 181 145 162 171 151 164 199 193 217 232 237 250 262 257 319 311 294 295 303 311 306 308 308 325 315 284 321 313 278 334 149 138 197 182 236 246
216 221 225 227 201 196 202 215 206 197 187 175 171 151 155 163 188 206 217 228 210 268 261 254 292 307 297 302 308 295 287 280 273 282 296 281 303 323 297 336 322 93 353 354 192 162 279
220 224 230 218 200 201 214 219 205 202 196 201 182 161 187 196 213 211 209 222 240 259 277 283 289 288 297 308 305 294 277 265 265 264 235 269 295 291 301 316 50 36 6 331 314 314 316
216 220 222 195 198 202 204 203 203 206 201 206 201 179 190 235 229 216 231 245 270 269 265 276 287 291 304 302 300 311 311 253 193 210 336 219 284 295 309 315 287 52 11 360 342 320 329
215 212 211 197 199 198 205 212 204 205 202 201 201 199 187 240 233 240 247 253 269 271 271 261 294 307 302 278 273 282 303 323 324 323 114 134 250 276 324 316 352 34 340 328 275 223 317
216 214 209 204 199 198 200 207 211 207 204 197 206 202 194 212 243 207 216 262 211 233 272 293 327 316 298 293 280 298 320 314 313 318 336 324 322 301 302 279 289 0 336 323 262 9 329
221 221 204 201 200 200 199 205 209 206 206 202 205 203 199 224 249 234 237 239 245 251 266 319 306 176 287 278 299 350 299 345 304 331 310 302 320 313 318 285 281 3 350 5 324 319 313
216 212 199 193 201 199 197 196 200 199 204 200 200 204 213 226 270 244 246 246 243 252 268 240 282 300 308 287 333 320 307 306 329 297 189 305 357 315 308 321 324 343 339 335 335 318 323
Height
1525 1525 1526 1526 1526 1527 1527 1526 1526 1526 1526 1524 1522 1521 1519 1516 1514 1511 1509 1507 1504 1501 1498 1496 1493 1491 1491 1492 1490 1487 1487 1486 1484 1484 1485 1486 1485 1481 1473 1472 1473 1469 1468 1466 1469 1468 1466
1523 1523 1522 1522 1522 1523 1524 1524 1524 1524 1524 1522 1520 1518 1516 1514 1511 1508 1507 1504 1501 1498 1495 1493 1490 1488 1489 1490 1484 1483 1484 1484 1484 1482 1483 1482 1481 1478 1473 1470 1468 1463 1463 1462 1462 1462 1461
1519 1520 1520 1520 1520 1520 1521 1521 1521 1521 1521 1521 1518 1516 1514 1513 1510 1506 1505 1501 1498 1494 1491 1490 1488 1485 1485 1485 1482 1481 1482 1482 1481 1480 1479 1479 1480 1479 1472 1469 1465 1464 1462 1458 1456 1457 1454
1514 1516 1517 1517 1518 1518 1518 1519 1519 1518 1519 1519 1517 1515 1512 1510 1507 1504 1502 1498 1494 1490 1488 1487 1486 1483 1483 1482 1481 1482 1482 1482 1480 1477 1476 1474 1476 1475 1473 1469 1465 1461 1454 1452 1443 1446 1449
1511 1513 1514 1515 1514 1516 1516 1516 1517 1517 1516 1517 1515 1513 1510 1507 1506 1504 1500 1494 1490 1487 1485 1484 1485 1484 1484 1483 1482 1481 1480 1479 1476 1475 1473 1471 1470 1469 1468 1466 1460 1451 1449 1442 1439 1445 1442
1507 1510 1510 1511 1511 1514 1514 1513 1514 1515 1515 1515 1513 1511 1508 1506 1505 1500 1497 1492 1488 1485 1485 1483 1484 1487 1486 1486 1481 1478 1478 1474 1473 1473 1471 1471 1468 1460 1456 1456 1444 1443 1441 1442 1442 1437 1434
1505 1505 1507 1508 1509 1511 1511 1511 1512 1513 1513 1512 1510 1509 1508 1506 1501 1497 1494 1491 1494 1491 1487 1492 1493 1494 1492 1490 1484 1481 1476 1473 1471 1471 1467 1465 1463 1439 1437 1440 1439 1441 1437 1433 1431 1430 1435
1502 1503 1505 1505 1506 1508 1509 1510 1510 1511 1510 1509 1508 1508 1507 1504 1499 1495 1494 1494 1498 1501 1493 1491 1491 1491 1491 1490 1484 1481 1479 1476 1473 1468 1463 1460 1445 1427 1435 1434 1435 1439 1435 1427 1430 1430 1435
1498 1500 1501 1502 1503 1506 1507 1508 1508 1509 1508 1506 1506 1507 1505 1502 1498 1497 1495 1495 1496 1496 1496 1494 1492 1491 1491 1489 1481 1479 1479 1475 1470 1465 1460 1454 1411 1433 1432 1433 1434 1431 1428 1427 1430 1429 1426
1495 1497 1498 1500 1501 1503 1504 1505 1506 1507 1506 1505 1505 1504 1503 1501 1499 1498 1499 1495 1496 1494 1485 1493 1492 1491 1490 1485 1479 1480 1477 1476 1469 1461 1458 1444 1429 1431 1429 1424 1423 1424 1420 1426 1430 1433 1426
1491 1494 1496 1497 1499 1500 1501 1503 1504 1505 1503 1504 1503 1502 1501 1499 1500 1499 1499 1495 1495 1494 1472 1494 1491 1491 1490 1488 1482 1476 1477 1471 1464 1458 1455 1425 1430 1428 1424 1409 1421 1413 1419 1423 1425 1424 1422
1487 1491 1493 1495 1496 1497 1498 1500 1502 1503 1502 1502 1502 1500 1499 1500 1500 1498 1496 1495 1496 1486 1472 1491 1492 1491 1488 1484 1479 1476 1472 1468 1459 1450 1444 1425 1430 1426 1418 1416 1413 1417 1421 1420 1418 1416 1420
1484 1487 1490 1492 1494 1495 1496 1498 1500 1501 1501 1500 1501 1499 1498 1499 1501 1497 1496 1497 1485 1477 1494 1492 1494 1492 1488 1478 1474 1472 1467 1461 1466 1459 1437 1422 1408 1409 1414 1415 1409 1411 1414 1416 1422 1416 1403
1483 1484 1487 1489 1491 1494 1494 1496 1497 1499 1498 1499 1500 1497 1498 1498 1499 1497 1497 1497 1489 1495 1495 1497 1495 1490 1486 1480 1474 1471 1464 1466 1461 1466 1451 1426 1401 1393 1395 1400 1399 1398 1402 1401 1404 1396 1394
1479 1483 1485 1486 1489 1491 1492 1493 1495 1496 1497 1498 1498 1498 1499 1498 1498 1498 1499 1492 1490 1498 1504 1500 1492 1484 1478 1479 1479 1471 1463 1467 1464 1466 1461 1441 1404 1386 1383 1386 1389 1389 1393 1384 1387 1383 1387
1477 1480 1482 1485 1486 1488 1490 1491 1493 1494 1496 1497 1498 1498 1500 1499 1499 1499 1498 1495 1497 1504 1503 1500 1496 1492 1485 1479 1476 1472 1468 1463 1463 1457 1460 1446 1425 1382 1377 1380 1384 1378 1384 1395 1388 1396 1392
1474 1477 1480 1482 1484 1486 1488 1489 1490 1493 1494 1495 1497 1498 1501 1499 1500 1501 1493 1495 1501 1503 1502 1500 1496 1495 1488 1484 1479 1475 1472 1463 1458 1452 1448 1447 1431 1386 1381 1379 1374 1380 1379 1383 1381 1380 1376
1471 1474 1477 1479 1482 1484 1485 1487 1490 1491 1493 1495 1495 1498 1500 1500 1503 1501 1495 1500 1505 1500 1499 1499 1499 1495 1492 1487 1478 1471 1471 1463 1458 1452 1443 1441 1432 1402 1383 1380 1376 1369 1373 1371 1376 1378 1372
1468 1470 1474 1477 1478 1481 1482 1485 1488 1489 1491 1494 1495 1497 1500 1501 1498 1496 1500 1502 1502 1498 1497 1497 1494 1493 1491 1484 1481 1466 1461 1458 1456 1455 1447 1440 1427 1398 1380 1383 1391 1389 1371 1367 1367 1365 1367
1463 1467 1471 1474 1475 1478 1480 1482 1485 1488 1490 1492 1494 1496 1501 1501 1501 1499 1503 1499 1497 1498 1497 1497 1495 1493 1487 1479 1474 1467 1460 1456 1457 1453 1449 1441 1436 1427 1421 1406 1385 1396 1398 1383 1372 1371 1368
1459 1462 1467 1470 1472 1474 1478 1480 1483 1485 1488 1491 1491 1493 1493 1495 1498 1499 1501 1497 1495 1495 1497 1496 1490 1488 1489 1483 1471 1461 1459 1452 1451 1447 1445 1442 1431 1420 1412 1404 1386 1385 1390 1397 1386 1374 1372
1455 1459 1463 1466 1469 1472 1475 1477 1481 1484 1487 1489 1490 1491 1494 1494 1497 1498 1498 1492 1492 1494 1496 1491 1490 1487 1488 1481 1475 1467 1464 1458 1453 1445 1445 1440 1432 1419 1406 1404 1385 1383 1386 1382 1385 1385 1372
1449 1454 1457 1460 1465 1469 1471 1474 1478 1480 1485 1486 1487 1489 1491 1493 1494 1493 1490 1490 1491 1496 1493 1492 1491 1490 1484 1477 1474 1469 1463 1455 1453 1449 1448 1443 1430 1423 1400 1391 1391 1385 1386 1381 1380 1379 1376
1443 1448 1451 1455 1460 1464 1467 1470 1474 1477 1481 1484 1486 1489 1492 1488 1487 1488 1491 1492 1492 1493 1493 1491 1491 1487 1481 1477 1468 1456 1446 1442 1443 1441 1444 1439 1431 1423 1409 1391 1400 1390 1388 1382 1382 1380 1379
1437 1442 1446 1450 1455 1460 1463 1466 1470 1474 1478 1482 1484 1488 1489 1487 1486 1487 1490 1490 1491 1490 1489 1487 1485 1484 1482 1476 1463 1447 1435 1433 1432 1434 1432 1437 1432 1421 1414 1399 1389 1395 1394 1395 1391 1382 1382
1431 1436 1440 1445 1451 1455 1460 1464 1467 1471 1475 1479 1482 1485 1488 1489 1484 1486 1487 1488 1487 1483 1483 1483 1483 1481 1479 1472 1467 1454 1444 1438 1430 1429 1432 1432 1433 1428 1415 1415 1398 1398 1396 1395 1392 1389 1384
1424 1430 1435 1441 1446 1450 1456 1460 1464 1468 1472 1476 1480 1482 1486 1487 1484 1486 1485 1483 1486 1485 1482 1481 1482 1479 1477 1471 1461 1453 1452 1444 1439 1437 1431 1427 1424 1422 1413 1415 1403 1405 1401 1390 1389 1396 1392
1418 1423 1429 1435 1441 1447 1451 1455 1459 1465 1469 1473 1477 1479 1483 1483 1481 1483 1483 1484 1484 1485 1482 1481 1480 1479 1474 1469 1463 1457 1453 1446 1446 1445 1442 1437 1428 1422 1417 1416 1411 1408 1400 1401 1405 1399 1394
1411 1417 1421 1429 1436 1442 1447 1451 1456 1461 1466 1471 1475 1477 1479 1481 1480 1478 1479 1479 1481 1482 1483 1482 1482 1483 1478 1472 1465 1462 1459 1454 1448 1446 1445 1438 1444 1437 1428 1411 1414 1417 1417 1413 1408 1402 1401